timestamp,wind_dir_avg,wind_spd_max_dir,wind_spd_avg,wind_spd_gust,battery_voltage,lat,long
2018-11-14 00:00:00+00:00,318.0,321.0,2.39,2.72,,47.59359,-54.27349
2018-11-14 00:10:00+00:00,352.0,0.0,2.21,2.71,,47.59359,-54.27349
2018-11-14 00:20:00+00:00,335.0,334.0,2.87,3.43,,47.59359,-54.27349
2018-11-14 00:30:00+00:00,332.0,312.0,1.45,2.39,,47.59359,-54.27349
2018-11-14 00:40:00+00:00,298.0,302.0,2.7,3.32,,47.59359,-54.27349
2018-11-14 00:50:00+00:00,288.0,284.0,3.21,4.2,,47.59359,-54.27349
2018-11-14 01:00:00+00:00,285.0,296.0,2.22,3.35,,47.59359,-54.27349
2018-11-14 01:10:00+00:00,333.0,331.0,2.24,3.47,,47.59359,-54.27349
2018-11-14 01:20:00+00:00,314.0,318.0,2.6,3.02,,47.59359,-54.27349
2018-11-14 01:30:00+00:00,320.0,337.0,2.11,2.77,,47.59359,-54.27349
2018-11-14 01:40:00+00:00,310.0,310.0,1.84,2.15,,47.59359,-54.27349
2018-11-14 01:50:00+00:00,309.0,307.0,1.7,1.93,,47.59359,-54.27349
2018-11-14 02:00:00+00:00,334.0,325.0,1.34,1.72,,47.59359,-54.27349
2018-11-14 02:10:00+00:00,281.0,278.0,1.17,1.55,,47.59359,-54.27349
2018-11-14 02:20:00+00:00,214.0,226.0,2.85,3.23,,47.59359,-54.27349
2018-11-14 02:30:00+00:00,236.0,227.0,2.68,3.49,,47.59359,-54.27349
2018-11-14 02:40:00+00:00,249.0,258.0,1.45,2.07,,47.59359,-54.27349
2018-11-14 02:50:00+00:00,226.0,222.0,2.39,2.9,,47.59359,-54.27349
2018-11-14 03:00:00+00:00,220.0,224.0,2.23,2.97,,47.59359,-54.27349
2018-11-14 03:10:00+00:00,252.0,252.0,2.69,3.23,,47.59359,-54.27349
2018-11-14 03:20:00+00:00,222.0,221.0,3.69,4.16,,47.59359,-54.27349
2018-11-14 03:30:00+00:00,242.0,242.0,3.64,3.96,,47.59359,-54.27349
2018-11-14 03:40:00+00:00,246.0,245.0,2.75,3.82,,47.59359,-54.27349
2018-11-14 03:50:00+00:00,209.0,204.0,2.92,3.57,,47.59359,-54.27349
2018-11-14 04:00:00+00:00,237.0,235.0,3.09,4.23,,47.59359,-54.27349
2018-11-14 04:10:00+00:00,209.0,204.0,3.07,3.68,,47.59359,-54.27349
2018-11-14 04:20:00+00:00,160.0,159.0,4.03,4.52,,47.59359,-54.27349
2018-11-14 04:30:00+00:00,187.0,195.0,4.06,4.96,,47.59359,-54.27349
2018-11-14 04:40:00+00:00,194.0,192.0,5.43,7.19,,47.59359,-54.27349
2018-11-14 04:50:00+00:00,189.0,187.0,6.66,8.09,,47.59359,-54.27349
2018-11-14 05:00:00+00:00,183.0,183.0,6.03,6.6,,47.59359,-54.27349
2018-11-14 05:10:00+00:00,193.0,191.0,4.42,5.39,,47.59359,-54.27349
2018-11-14 05:20:00+00:00,194.0,199.0,4.11,4.46,,47.59359,-54.27349
2018-11-14 05:30:00+00:00,177.0,178.0,4.68,5.44,,47.59359,-54.27349
2018-11-14 05:40:00+00:00,167.0,168.0,4.01,4.67,,47.59359,-54.27349
2018-11-14 05:50:00+00:00,169.0,173.0,3.84,4.37,,47.59359,-54.27349
2018-11-14 06:00:00+00:00,169.0,168.0,5.34,5.94,,47.59359,-54.27349
2018-11-14 06:10:00+00:00,170.0,160.0,5.3,6.08,,47.59359,-54.27349
2018-11-14 06:50:00+00:00,176.0,174.0,7.88,8.37,,47.59359,-54.27349
2018-11-14 07:00:00+00:00,171.0,176.0,7.26,8.18,,47.59359,-54.27349
2018-11-14 07:10:00+00:00,167.0,163.0,7.49,8.57,,47.59359,-54.27349
2018-11-14 07:20:00+00:00,172.0,174.0,8.12,9.22,,47.59359,-54.27349
2018-11-14 07:30:00+00:00,163.0,166.0,8.06,9.69,,47.59359,-54.27349
2018-11-14 08:30:00+00:00,152.0,154.0,10.39,11.84,,47.59359,-54.27349
2018-11-14 08:40:00+00:00,147.0,153.0,9.26,11.01,,47.59359,-54.27349
2018-11-14 08:50:00+00:00,147.0,158.0,7.4,8.35,,47.59359,-54.27349
2018-11-14 09:00:00+00:00,155.0,148.0,10.76,13.65,,47.59359,-54.27349
2018-11-14 09:10:00+00:00,157.0,150.0,11.67,13.55,,47.59359,-54.27349
2018-11-14 09:20:00+00:00,159.0,159.0,13.51,15.99,,47.59359,-54.27349
2018-11-14 09:30:00+00:00,160.0,166.0,13.42,15.96,,47.59359,-54.27349
2018-11-14 09:40:00+00:00,157.0,152.0,11.57,13.21,,47.59359,-54.27349
2018-11-14 09:50:00+00:00,154.0,153.0,14.51,18.86,,47.59359,-54.27349
2018-11-14 10:00:00+00:00,157.0,144.0,11.72,13.93,,47.59359,-54.27349
2018-11-14 10:10:00+00:00,171.0,168.0,12.31,14.58,,47.59359,-54.27349
2018-11-14 10:20:00+00:00,177.0,179.0,12.93,15.8,,47.59359,-54.27349
2018-11-14 10:30:00+00:00,173.0,175.0,12.99,16.29,,47.59359,-54.27349
2018-11-14 10:40:00+00:00,175.0,173.0,12.17,14.5,,47.59359,-54.27349
2018-11-14 10:50:00+00:00,184.0,189.0,10.86,13.99,,47.59359,-54.27349
2018-11-14 11:00:00+00:00,192.0,196.0,9.92,12.12,,47.59359,-54.27349
2018-11-14 11:10:00+00:00,189.0,181.0,8.32,10.95,,47.59359,-54.27349
2018-11-14 11:20:00+00:00,178.0,177.0,10.15,13.37,,47.59359,-54.27349
2018-11-14 11:30:00+00:00,181.0,182.0,14.72,18.48,,47.59359,-54.27349
2018-11-14 11:40:00+00:00,181.0,180.0,15.82,18.61,,47.59359,-54.27349
2018-11-14 11:50:00+00:00,184.0,184.0,18.48,23.33,,47.59359,-54.27349
2018-11-14 12:00:00+00:00,184.0,187.0,17.78,21.28,,47.59359,-54.27349
2018-11-14 12:10:00+00:00,192.0,198.0,15.85,18.41,,47.59359,-54.27349
2018-11-14 12:20:00+00:00,199.0,193.0,19.26,23.34,,47.59359,-54.27349
2018-11-14 12:30:00+00:00,205.0,201.0,17.32,20.46,,47.59359,-54.27349
2018-11-14 12:40:00+00:00,210.0,214.0,16.41,19.93,,47.59359,-54.27349
2018-11-14 12:50:00+00:00,227.0,231.0,15.2,17.4,,47.59359,-54.27349
2018-11-14 13:00:00+00:00,245.0,248.0,16.01,18.87,,47.59359,-54.27349
2018-11-14 13:10:00+00:00,241.0,243.0,14.82,17.75,,47.59359,-54.27349
2018-11-14 13:20:00+00:00,241.0,243.0,15.11,18.48,,47.59359,-54.27349
2018-11-14 13:30:00+00:00,246.0,245.0,14.47,17.42,,47.59359,-54.27349
2018-11-14 13:40:00+00:00,249.0,252.0,14.62,17.19,,47.59359,-54.27349
2018-11-14 13:50:00+00:00,255.0,254.0,11.23,13.3,,47.59359,-54.27349
2018-11-14 14:00:00+00:00,261.0,259.0,16.94,20.55,,47.59359,-54.27349
2018-11-14 14:10:00+00:00,255.0,258.0,18.8,23.21,,47.59359,-54.27349
2018-11-14 14:20:00+00:00,268.0,269.0,19.87,24.57,,47.59359,-54.27349
2018-11-14 14:30:00+00:00,273.0,278.0,21.27,26.9,,47.59359,-54.27349
2018-11-14 14:40:00+00:00,281.0,278.0,19.73,24.03,,47.59359,-54.27349
2018-11-14 14:50:00+00:00,284.0,280.0,19.07,22.02,,47.59359,-54.27349
2018-11-14 15:00:00+00:00,268.0,272.0,15.57,19.83,,47.59359,-54.27349
2018-11-14 15:10:00+00:00,250.0,234.0,17.89,24.38,,47.59359,-54.27349
2018-11-14 15:20:00+00:00,273.0,268.0,17.67,21.89,,47.59359,-54.27349
2018-11-14 15:30:00+00:00,256.0,261.0,21.27,24.97,,47.59359,-54.27349
2018-11-14 15:40:00+00:00,254.0,265.0,19.99,23.85,,47.59359,-54.27349
2018-11-14 15:50:00+00:00,272.0,271.0,20.84,28.97,,47.59359,-54.27349
2018-11-14 16:00:00+00:00,264.0,261.0,18.03,22.76,,47.59359,-54.27349
2018-11-14 16:10:00+00:00,263.0,265.0,15.83,18.3,,47.59359,-54.27349
2018-11-14 16:20:00+00:00,247.0,246.0,20.33,25.24,,47.59359,-54.27349
2018-11-14 16:30:00+00:00,265.0,255.0,16.75,20.91,,47.59359,-54.27349
2018-11-14 16:40:00+00:00,277.0,275.0,18.17,23.49,,47.59359,-54.27349
2018-11-14 16:50:00+00:00,266.0,260.0,22.62,28.32,,47.59359,-54.27349
2018-11-14 17:00:00+00:00,261.0,255.0,20.58,23.32,,47.59359,-54.27349
2018-11-14 17:10:00+00:00,277.0,278.0,18.95,22.4,,47.59359,-54.27349
2018-11-14 17:20:00+00:00,269.0,272.0,19.76,23.21,,47.59359,-54.27349
2018-11-14 17:30:00+00:00,273.0,276.0,23.22,29.9,,47.59359,-54.27349
2018-11-14 17:40:00+00:00,286.0,283.0,22.96,27.21,,47.59359,-54.27349
2018-11-14 17:50:00+00:00,272.0,271.0,20.89,25.04,,47.59359,-54.27349
2018-11-14 18:00:00+00:00,263.0,262.0,18.55,23.98,,47.59359,-54.27349
2018-11-14 18:10:00+00:00,267.0,258.0,22.28,25.75,,47.59359,-54.27349
2018-11-14 18:20:00+00:00,267.0,267.0,20.93,25.1,,47.59359,-54.27349
2018-11-14 18:30:00+00:00,272.0,262.0,19.92,22.22,,47.59359,-54.27349
2018-11-14 18:40:00+00:00,280.0,277.0,19.06,23.01,,47.59359,-54.27349
2018-11-14 18:50:00+00:00,272.0,276.0,21.81,31.34,,47.59359,-54.27349
2018-11-14 19:00:00+00:00,272.0,274.0,21.22,25.03,,47.59359,-54.27349
2018-11-14 19:10:00+00:00,271.0,270.0,21.35,25.44,,47.59359,-54.27349
2018-11-14 19:20:00+00:00,276.0,274.0,20.76,27.64,,47.59359,-54.27349
2018-11-14 19:30:00+00:00,270.0,270.0,21.44,24.41,,47.59359,-54.27349
2018-11-14 19:40:00+00:00,280.0,284.0,21.1,24.8,,47.59359,-54.27349
2018-11-14 19:50:00+00:00,278.0,275.0,18.87,22.03,,47.59359,-54.27349
2018-11-14 20:00:00+00:00,276.0,277.0,24.23,28.72,,47.59359,-54.27349
2018-11-14 20:10:00+00:00,274.0,273.0,19.59,26.02,,47.59359,-54.27349
2018-11-14 20:20:00+00:00,279.0,276.0,20.55,23.93,,47.59359,-54.27349
2018-11-14 20:30:00+00:00,270.0,268.0,23.19,27.98,,47.59359,-54.27349
2018-11-14 20:40:00+00:00,269.0,267.0,21.22,26.29,,47.59359,-54.27349
2018-11-14 20:50:00+00:00,274.0,273.0,25.89,32.64,,47.59359,-54.27349
2018-11-14 21:00:00+00:00,270.0,274.0,23.6,27.8,,47.59359,-54.27349
2018-11-14 21:10:00+00:00,274.0,268.0,21.51,24.8,,47.59359,-54.27349
2018-11-14 21:20:00+00:00,274.0,270.0,18.89,24.58,,47.59359,-54.27349
2018-11-14 21:30:00+00:00,275.0,275.0,21.24,24.47,,47.59359,-54.27349
2018-11-14 21:40:00+00:00,273.0,262.0,20.49,24.23,,47.59359,-54.27349
2018-11-14 21:50:00+00:00,277.0,269.0,22.01,27.38,,47.59359,-54.27349
2018-11-14 22:00:00+00:00,272.0,275.0,23.59,29.19,,47.59359,-54.27349
2018-11-14 22:10:00+00:00,269.0,265.0,22.37,27.56,,47.59359,-54.27349
2018-11-14 22:20:00+00:00,265.0,268.0,26.53,30.65,,47.59359,-54.27349
2018-11-14 22:30:00+00:00,269.0,274.0,23.79,27.18,,47.59359,-54.27349
2018-11-14 22:40:00+00:00,277.0,276.0,20.05,23.77,,47.59359,-54.27349
2018-11-14 22:50:00+00:00,276.0,279.0,23.57,28.43,,47.59359,-54.27349
2018-11-14 23:00:00+00:00,274.0,266.0,21.87,28.38,,47.59359,-54.27349
2018-11-14 23:10:00+00:00,273.0,274.0,22.75,27.29,,47.59359,-54.27349
2018-11-14 23:20:00+00:00,279.0,277.0,24.62,31.83,,47.59359,-54.27349
2018-11-14 23:30:00+00:00,283.0,287.0,21.93,24.54,,47.59359,-54.27349
2018-11-14 23:40:00+00:00,286.0,285.0,22.31,27.65,,47.59359,-54.27349
2018-11-14 23:50:00+00:00,287.0,288.0,22.66,25.93,,47.59359,-54.27349
